Regional Weather Roundup
Issued by NWS

Home | Current Version | Previous Version | Text Only | Print | Product List | Glossary Off
Versions: 1 2 3 4 5 6 7 8 9 10 11 12 13 14 15 16 17 18 19 20 21 22 23 24 25 26 27 28 29 30 31 32 33 34 35 36 37 38 39 40 41 42 43 44 45 46 47 48 49 50

000
ASUS43 KMKX 210720
RWRWI

WISCONSIN REGIONAL WEATHER ROUNDUP
NATIONAL WEATHER SERVICE MILWAUKEE/SULLIVAN WI
200 AM CDT SAT APR 21 2018

NOTE: "FAIR" INDICATES FEW OR NO CLOUDS BELOW 12,000 FEET WITH NO
SIGNIFICANT WEATHER AND/OR OBSTRUCTIONS TO VISIBILITY.

WIZ001-002-006>008-014>016-023>028-210800-
NORTHWEST WISCONSIN

CITY           SKY/WX    TMP DP  RH WIND       PRES   REMARKS
SUPERIOR ARPT  FAIR      34  20  54 CALM      30.41S
ASHLAND        FAIR      36  20  52 SW6       30.40F WCI  31
HAYWARD        FAIR      27  22  81 CALM      30.41F
SIREN          FAIR      28  21  74 CALM      30.41F
CUMBERLAND     FAIR      28  19  69 CALM      30.41F
RICE LAKE      FAIR      29  25  86 CALM      30.43F
CHETEK         FAIR      28  23  84 CALM      30.42S
LADYSMITH      FAIR      28  23  79 CALM      30.42F
EAU CLAIRE     FAIR      30  22  72 CALM      30.41F
MENOMONIE      FAIR      32  25  74 W3        30.42F
NEW RICHMOND   FAIR      30  25  82 CALM      30.42S
OSCEOLA        FAIR      31  25  80 CALM      30.44F
$$

WIZ003>005-009-010-017-018-210800-
NORTH CENTRAL WISCONSIN

CITY           SKY/WX    TMP DP  RH WIND       PRES   REMARKS
MANITOWISH WTR FAIR      27  22  79 CALM      30.40S
ARBOR VITAE    FAIR      32  22  65 CALM      30.40F
WOODRUFF       FAIR      32  22  65 CALM      30.40F
RHINELANDER    FAIR      30  17  58 CALM      30.41F
EAGLE RIVER    FAIR      27  18  68 CALM      30.39F
LAND O LAKES   FAIR      26  19  72 CALM      30.40F
PHILLIPS       FAIR      26  22  85 CALM      30.40F
TOMAHAWK       FAIR      24  18  77 CALM      30.42S
MEDFORD        FAIR      27  21  76 CALM      30.40F
MERRILL        FAIR      25  21  84 CALM      30.42F
$$

WIZ029-030-035-036-043>047-210800-
CENTRAL WISCONSIN

CITY           SKY/WX    TMP DP  RH WIND       PRES   REMARKS
WAUSAU         FAIR      29  21  72 CALM      30.40F
MOSINEE        FAIR      32  18  55 CALM      30.42F
MARSHFIELD     FAIR      32  21  64 CALM      30.40F
STEVENS POINT  FAIR      26  19  76 CALM      30.42F
WAUPACA        FAIR      30  23  74 CALM      30.43F
WAUTOMA        FAIR      27  24  89 CALM      30.44F
WISC RAPIDS    FAIR      29  18  63 CALM      30.43F
CAMP DOUGLAS   FAIR      27  22  83 CALM      30.42F HAZE
$$

WIZ011>013-019>022-031-037>040-048>050-210800-
NORTHEAST WISCONSIN

CITY           SKY/WX    TMP DP  RH WIND       PRES   REMARKS
ANTIGO         FAIR      28  25  89 CALM      30.41F
SHAWANO        FAIR      30  21  70 CALM      30.42F
OCONTO         FAIR      26  21  80 CALM      30.43F
STURGEON BAY   FAIR      36  22  56 CALM      30.44F
GREEN BAY      FAIR      30  23  75 CALM      30.44S
MANITOWOC      FAIR      30  26  85 CALM      30.45S
APPLETON       FAIR      36  12  38 CALM      30.41F
CLINTONVILLE   FAIR      28  20  70 CALM      30.43S
OSHKOSH        FAIR      39  19  44 SW8       30.43F WCI  33
$$

WIZ032>034-041-042-053>061-210800-
SOUTHWEST WISCONSIN

CITY           SKY/WX    TMP DP  RH WIND       PRES   REMARKS
LA CROSSE      FAIR      37  28  70 CALM      30.42F
SPARTA         FAIR      26  22  85 CALM      30.44F
VIROQUA        FAIR      40  21  46 E6        30.41F
BOSCOBEL       FAIR      32  29  88 CALM      30.43F
PRAIRIE DU CHI FAIR      35  30  80 CALM      30.42F
PLATTEVILLE    FAIR      41  30  65 E9        30.41S
$$

WIZ056-057-062-063-064-067-068-210800-
SOUTH CENTRAL WISCONSIN

CITY           SKY/WX    TMP DP  RH WIND       PRES   REMARKS
REEDSBURG      FAIR      30  27  86 CALM      30.42F
BARABOO/DELLS  FAIR      31  19  62 CALM      30.42F
LONE ROCK      FAIR      32  28  85 CALM      30.43F
MINERAL POINT  FAIR      43  27  52 E5        30.41S
MADISON        FAIR      31  24  75 CALM      30.42F
MIDDLETON      FAIR      32  29  90 CALM      30.43F
WATERTOWN      FAIR      30  24  79 CALM      30.42F
MONROE         FAIR      43  19  39 SE6       30.41F
JANESVILLE     FAIR      37  28  70 CALM      30.42F
$$

WIZ051-052-058>065-066-070>072-210800-
SOUTHEAST WISCONSIN

CITY           SKY/WX    TMP DP  RH WIND       PRES   REMARKS
MILWAUKEE      FAIR      38  20  48 CALM      30.44F
WAUKESHA       FAIR      30  23  74 CALM      30.45F
MILWAUKEE/TIMM FAIR      32  23  69 CALM      30.45F
RACINE         FAIR      33  23  66 CALM      30.45F
BURLINGTON     FAIR      29  23  80 CALM      30.43F
KENOSHA        FAIR      31  21  66 CALM      30.44F
FOND DU LAC    FAIR      29  20  69 S3        30.43F
SHEBOYGAN      FAIR      29  27  92 CALM      30.44S
WEST BEND      FAIR      32  28  86 CALM      30.43F
JUNEAU         FAIR      36  19  50 E3        30.44F
$$

LSZ147-162-210800-
LAKE SUPERIOR

STATION/POSITION TIME  TEMP    WIND        PRES    WAVE
                       AIR SEA DIR/SP/G            HT/PER
                 (UTC) (F)     (DEG/KT/KT) (MB)    (FT/S)
DEVILS ISLAND    0700   38     260/  8/  8 1030.0F
SAXON HARBOR     0630   31     180/  3/  3 1029.1S
$$

LMZ867-665-643>646-210800-
LAKE MICHIGAN

STATION/POSITION TIME  TEMP    WIND        PRES    WAVE
                       AIR SEA DIR/SP/G            HT/PER
                 (UTC) (F)     (DEG/KT/KT) (MB)    (FT/S)
NORTHPORT PIER   0700   33                 1029.8
KEWAUNEE LAKESHO 0654   32     280/  2/  3 1029.8F
SHEBOYGAN LAKESH 0700   40     260/  4/  4 1031.2F
PORT WASHINGTON  0630   35     350/  1/  4 1031.8S
MILWAUKEE LAKESH 0700   43     300/  3/  4   N/A
KENOSHA   LAKESH 0700   40                 1030.8
$$

TC  - TEMPERATURE IN CELSIUS
VSB - VISIBILITY IN STATUTE MILES
WCI - WIND CHILL INDEX
HX  - HEAT INDEX




USA.gov is the U.S. government's official web portal to all federal, state and local government web resources and services.